RH
37 35 27 16 19 12 16 21 18 21 23 23 22 19 14 10 8 8 7 7 9 12 21 29 37 38 35 36 37 39 48 57 64 68 71 70 70 74 68 63 60 59 58
29 29 16 18 18 15 13 22 24 22 24 26 24 18 17 13 10 9 9 9 8 10 15 23 32 40 39 37 38 43 52 58 63 66 63 69 74 82 65 62 63 62 62
31 31 20 15 16 21 12 18 26 28 26 26 29 27 22 18 14 11 11 11 10 10 13 20 30 36 39 42 42 45 51 55 60 60 60 71 77 82 61 61 69 65 62
27 33 28 15 15 20 14 14 21 25 27 26 28 29 26 18 16 14 13 13 12 12 12 15 20 28 37 44 46 47 52 57 58 56 65 75 74 75 67 60 70 77 63
20 24 24 18 17 22 17 13 16 21 23 21 24 27 25 21 17 16 16 15 14 14 14 15 19 24 34 42 48 50 54 58 58 55 63 73 75 79 70 60 64 69 65
15 13 16 18 18 20 20 16 14 16 21 20 20 22 23 23 18 17 17 16 15 14 15 17 20 23 28 36 45 49 53 60 57 53 54 68 85 89 72 81 72 72 74
17 15 11 18 21 21 24 22 15 15 18 20 19 18 20 23 22 18 17 18 16 15 18 23 24 24 25 35 43 45 53 57 55 51 59 76 85 75 82 78 73 72 73
19 17 13 12 17 24 26 26 21 16 17 19 20 19 19 21 24 22 19 18 18 18 17 19 26 27 27 26 33 38 53 58 56 52 55 69 83 79 74 69 70 70 76
19 21 20 15 14 18 24 29 28 20 17 18 20 20 20 20 22 24 23 21 19 19 20 18 19 22 23 28 27 30 43 58 58 54 49 63 78 76 66 72 64 65 72
22 22 20 19 12 16 24 31 33 26 20 19 20 21 21 21 21 22 25 23 21 20 20 21 20 21 22 22 28 28 28 44 54 48 39 50 55 67 71 73 70 66 69
31 29 26 21 18 14 19 27 31 36 26 22 23 22 22 22 22 24 26 25 22 22 22 21 22 22 22 20 22 29 30 36 55 46 37 37 46 56 67 72 71 72 71
31 31 28 25 21 18 15 24 30 32 38 28 25 25 23 24 23 26 26 26 22 22 22 22 23 24 24 20 19 19 26 31 41 55 40 38 50 56 61 76 82 84 84
28 28 25 36 27 18 18 18 29 33 38 38 31 29 27 27 26 24 26 26 23 21 21 23 23 24 25 23 20 19 18 21 29 42 50 48 52 57 73 72 88 95 93
29 29 26 24 42 22 20 19 21 34 41 36 34 32 33 30 28 27 24 27 27 24 21 22 24 25 26 26 24 21 19 20 27 34 43 48 61 60 64 63 71 74 79
28 28 34 29 47 38 22 27 25 25 35 40 40 37 36 37 34 35 31 28 28 27 24 21 23 25 26 25 26 26 22 22 23 29 34 46 54 62 70 76 70 71 72
26 29 32 34 30 31 31 44 50 56 43 43 41 44 40 40 39 39 40 35 31 30 28 24 23 24 26 27 27 27 26 26 26 29 35 42 55 62 65 76 73 71 75
26 27 33 34 34 32 32 31 41 72 59 48 42 52 57 56 49 46 42 39 37 32 33 28 24 25 25 26 27 27 26 29 30 31 32 36 40 44 52 59 68 63 61
28 29 31 34 35 35 34 31 29 33 58 69 66 69 61 53 56 66 63 65 67 47 37 34 29 25 26 26 28 30 30 29 30 31 29 28 28 33 42 49 58 53 52
29 33 33 33 33 35 39 38 34 30 36 40 65 68 70 74 74 70 77 84 91 74 55 40 36 31 27 28 28 31 32 32 30 30 30 30 28 28 31 32 53 54 49
32 33 34 34 33 33 34 34 25 27 30 29 29 34 59 78 80 77 74 77 89 90 80 73 45 39 34 31 31 32 37 35 33 31 31 31 32 28 16 18 39 33 36
32 33 34 34 35 35 23 22 20 22 24 25 25 25 28 30 32 51 72 74 70 77 81 72 71 70 65 40 37 38 42 41 38 32 32 33 34 32 20 11 14 19 26
33 35 37 37 37 40 19 14 12 11 11 13 16 19 21 22 24 25 27 29 35 51 69 74 79 80 74 82 94 69 54 52 46 40 36 37 36 36 33 14 15 15 22
40 49 52 40 43 36 14 12 10 8 7 7 7 7 7 8 11 14 16 18 21 24 25 31 55 73 81 90 92 94 99 94 62 52 42 41 40 42 39 26 18 17 17
75 70 60 48 29 17 17 17 17 16 13 12 8 6 5 6 5 4 4 4 3 3 6 14 45 53 59 65 86 92 90 100 88 78 58 53 43 43 44 43 27 20 18
71 59 35 25 21 18 15 12 11 11 11 11 10 8 6 7 9 10 10 12 13 14 12 7 5 39 53 53 56 96 99 93 78 82 72 69 52 44 48 50 44 30 18
60 45 30 35 32 18 19 17 14 14 6 7 7 8 10 10 13 17 16 18 20 26 28 26 21 19 45 57 59 65 63 61 53 63 66 54 64 47 47 53 52 40 22
Wind_Speed
11 13 15 15 15 14 13 9 6 5 3 2 2 1 0 1 2 3 3 3 5 7 8 8 7 7 6 5 5 5 4 3 1 0 0 2 2 4 4 2 1 1 3
12 13 11 16 17 17 16 14 9 6 6 4 1 2 0 1 2 2 3 3 5 7 9 9 9 8 6 5 4 3 3 1 1 1 2 2 0 2 2 1 2 4 3
13 13 14 17 21 20 19 19 15 10 8 8 7 4 2 3 3 3 2 3 4 6 8 9 9 8 7 5 3 3 3 3 2 2 3 3 2 3 3 6 6 5 3
12 13 14 18 23 24 23 23 21 18 14 11 12 9 5 4 6 5 4 2 2 4 6 8 8 8 8 6 5 4 4 4 3 4 6 5 4 5 6 7 7 6 5
14 11 14 19 24 26 25 25 24 22 20 17 16 14 9 6 8 7 6 5 3 3 5 7 8 9 9 9 7 7 6 6 6 5 5 5 2 7 5 5 9 8 7
19 21 19 20 24 27 27 27 27 26 23 21 19 18 14 9 10 10 8 7 6 5 5 6 7 8 9 9 9 9 9 8 7 5 6 6 6 6 13 10 12 8 6
20 22 21 22 23 26 29 29 29 28 26 24 22 20 18 14 11 12 12 10 8 7 6 6 6 7 8 9 10 10 10 10 9 6 6 7 8 7 16 15 12 10 9
19 19 20 23 25 24 29 31 31 31 29 27 25 23 21 18 15 13 14 13 11 10 9 8 7 7 9 9 11 11 12 12 12 9 8 7 9 6 7 15 12 12 11
20 19 19 24 26 28 29 32 33 33 32 30 29 26 24 22 19 16 14 14 12 12 11 10 9 9 9 10 11 12 13 14 13 11 9 9 9 6 7 15 16 15 12
31 25 21 25 27 31 31 31 33 34 34 33 31 29 27 25 22 19 16 16 15 14 14 12 12 11 10 10 11 12 13 15 16 13 12 13 13 11 9 12 21 19 15
36 34 31 27 27 31 34 33 33 34 35 35 34 32 30 28 25 21 18 17 17 17 17 16 14 13 11 10 11 12 13 15 17 16 15 15 14 14 10 11 18 17 18
39 38 38 34 30 31 35 36 35 35 37 36 36 33 32 29 27 24 21 19 18 19 19 19 17 15 12 12 12 13 13 14 17 18 16 17 16 16 15 12 15 14 18
33 34 32 27 28 30 32 36 36 35 36 37 37 36 33 32 31 29 25 23 22 21 20 20 20 18 15 14 15 15 15 15 17 19 18 17 16 15 16 16 15 16 17
38 33 35 34 29 27 30 33 36 36 34 33 36 37 36 34 33 32 30 27 25 25 23 22 22 21 19 17 16 17 17 16 17 19 19 19 19 16 17 16 18 18 18
42 38 36 34 32 29 27 29 33 36 37 34 31 35 37 36 35 34 34 32 30 27 27 25 24 24 22 21 19 18 18 20 19 19 19 18 19 18 19 17 16 20 19
43 32 38 35 36 34 29 24 26 32 36 38 38 34 35 37 37 37 37 36 35 32 30 29 27 26 25 23 23 22 20 20 22 21 20 19 19 19 19 20 15 20 21
43 42 38 36 35 36 34 31 30 26 33 39 42 39 37 37 39 41 41 41 38 37 33 33 32 31 29 29 26 25 25 22 22 22 22 20 20 20 20 19 20 20 20
42 41 41 37 35 35 37 34 32 30 31 33 37 38 38 41 41 40 42 41 38 38 37 35 35 36 33 32 30 27 28 27 24 23 23 22 22 22 21 21 22 21 22
40 41 41 38 37 37 37 39 39 38 32 31 33 37 38 38 40 41 41 41 39 47 43 40 39 39 38 35 33 31 31 30 29 27 26 24 22 24 22 23 22 22 23
41 42 41 40 40 39 43 41 36 38 37 35 35 36 37 39 40 41 44 42 40 41 42 44 43 42 42 40 38 36 35 33 31 30 29 28 24 22 23 24 25 24 23
43 44 41 38 36 35 35 36 31 32 36 37 38 38 39 41 42 43 44 45 46 43 44 44 45 45 46 45 44 42 42 40 37 33 31 30 29 24 22 22 23 23 23
44 42 37 35 34 33 33 33 32 29 30 34 37 39 40 42 45 47 48 47 47 48 48 48 47 46 48 47 48 47 50 46 42 35 33 31 29 28 25 22 23 23 23
40 31 27 29 32 33 30 29 28 29 29 31 34 36 39 43 44 47 47 48 50 52 54 53 52 48 46 49 50 48 62 46 40 34 32 31 29 30 28 24 23 22 24
26 21 22 25 27 25 25 25 26 27 29 31 33 35 36 39 43 46 49 50 52 53 56 56 52 52 50 52 54 56 28 30 33 35 32 31 33 33 29 25 24 22 23
20 22 18 21 28 24 23 24 24 26 27 29 31 33 36 37 40 42 45 48 51 54 56 55 55 55 52 54 55 47 50 42 47 40 31 33 35 34 31 28 26 23 24
21 20 17 20 31 27 28 30 31 28 27 28 30 30 31 33 35 40 43 46 50 54 57 54 53 52 52 52 55 59 49 41 38 39 46 38 35 35 33 32 28 26 23
Wind_Direction
197 203 220 222 205 210 207 188 168 174 155 119 90 70 230 194 157 143 158 177 183 186 184 180 176 172 174 179 183 193 202 203 202 97 336 293 348 35 38 29 75 166 157
193 203 220 212 208 212 215 206 194 202 200 206 201 92 356 272 222 172 161 181 194 198 199 199 198 194 188 190 189 202 229 233 249 251 244 270 55 81 87 154 194 196 189
215 209 223 223 211 211 215 214 205 201 202 212 228 262 315 288 253 234 202 195 199 202 203 204 205 207 212 216 217 235 248 251 257 262 257 264 217 167 183 196 198 188 200
240 241 232 230 221 212 216 217 216 209 204 205 212 228 235 275 251 252 244 231 221 218 215 210 212 216 219 229 238 255 261 267 264 252 251 242 258 220 206 205 208 205 211
254 255 251 238 223 221 218 219 221 222 218 213 209 213 223 237 241 250 259 264 253 241 231 218 212 215 217 221 228 239 248 252 251 251 254 267 243 210 217 235 223 207 205
265 263 251 244 230 224 224 225 224 226 225 220 218 215 219 227 235 241 250 261 264 262 247 234 226 226 224 226 228 235 243 246 239 241 247 253 228 220 222 235 231 211 219
268 260 254 239 237 230 227 228 229 228 228 226 224 223 223 223 233 238 240 249 256 264 269 253 241 237 236 233 233 238 247 251 251 239 246 233 232 307 235 234 237 212 210
266 261 254 240 236 236 231 229 231 231 231 230 228 227 227 226 229 236 239 244 248 257 267 269 251 248 247 243 237 239 244 252 260 249 238 244 249 247 240 214 228 223 217
276 269 271 251 241 239 240 235 232 232 232 234 233 231 231 231 231 236 243 249 252 259 262 266 270 268 260 252 243 244 247 251 256 257 255 244 239 217 294 211 224 221 221
281 276 271 259 244 240 241 239 235 234 234 234 235 234 234 234 235 239 245 249 256 261 264 264 265 269 272 269 258 248 245 251 257 254 251 255 249 256 295 218 222 224 227
277 278 277 263 254 243 242 242 240 237 237 237 237 237 236 237 238 241 245 246 249 255 260 264 265 262 266 272 270 259 253 249 252 255 257 257 257 258 252 238 221 229 223
275 278 280 270 260 247 241 242 242 240 238 238 238 239 240 241 240 241 242 248 250 253 257 262 264 263 264 264 263 265 256 251 251 253 253 256 255 263 260 251 243 254 241
274 283 276 268 259 248 240 239 240 240 238 238 238 237 240 241 241 242 242 247 251 254 256 259 262 265 265 262 262 263 259 258 256 256 255 254 253 255 262 263 261 257 251
277 278 272 262 260 253 246 239 235 236 238 241 241 240 240 241 243 244 245 245 246 250 254 255 254 257 264 266 266 266 268 260 254 255 254 257 254 252 251 261 265 268 261
276 277 258 252 257 260 253 251 240 235 237 239 240 241 242 243 244 246 246 247 246 247 250 253 254 251 257 262 264 264 262 266 261 257 259 256 258 259 261 249 258 265 270
269 261 241 250 253 261 260 251 249 239 236 240 242 243 245 244 244 246 248 248 248 247 246 248 252 252 252 255 261 265 265 262 266 266 262 256 256 253 257 256 261 263 266
260 262 246 248 252 259 261 258 252 247 240 240 241 241 242 245 248 248 248 248 248 249 247 248 248 250 251 254 259 262 266 263 260 263 264 263 259 259 259 259 261 261 268
258 254 247 247 253 259 266 268 260 249 244 240 240 242 244 244 246 248 250 248 252 255 251 248 249 251 249 251 252 255 260 263 263 264 267 269 267 264 259 260 261 265 268
250 244 243 248 254 257 259 265 266 261 250 246 245 245 245 245 245 247 249 252 255 240 252 252 250 250 251 250 250 250 254 254 259 263 268 270 272 271 267 265 263 263 269
241 242 242 245 255 261 263 266 254 255 258 251 246 247 248 249 249 249 251 252 254 254 253 252 253 252 251 249 249 248 249 249 251 256 263 269 271 274 272 263 259 263 267
241 242 244 249 255 265 263 257 252 247 251 257 257 251 250 250 252 253 253 255 255 254 256 255 256 255 255 252 248 245 245 244 244 248 253 259 268 272 274 264 260 262 263
238 239 242 248 263 272 265 258 257 255 251 252 254 256 256 254 253 253 253 253 254 257 256 255 254 255 256 254 252 250 244 239 241 242 247 251 258 266 272 264 260 266 264
236 238 245 253 267 276 265 262 264 265 262 256 254 252 253 256 257 258 257 256 255 255 255 254 255 254 255 257 252 255 233 228 237 239 247 251 252 259 265 268 266 268 268
228 232 244 266 274 269 271 272 270 270 269 270 268 262 256 255 256 258 259 259 260 258 255 257 256 252 253 256 257 257 264 200 232 246 246 251 250 252 257 265 268 272 270
215 242 243 258 274 271 275 278 278 275 273 268 267 268 265 261 262 261 261 262 263 262 261 258 255 256 254 253 257 256 259 278 257 250 253 248 251 252 255 261 268 275 277
228 233 242 271 279 275 284 287 288 291 285 279 277 272 268 263 261 264 263 262 263 263 265 264 260 253 255 254 253 257 259 257 256 254 242 252 247 249 251 256 262 271 274